Temperature
18 18 18 18 18 18 18 18 18 18 18 18 18 18 18 18 18 18 18 18 18 18 18 18 18 18 18 18 17 17 17 17 17 17 17 17 17 17 16 16 16 16 16
18 18 18 18 18 18 18 18 18 18 18 18 18 18 18 18 18 18 18 18 18 18 18 18 18 18 18 18 17 17 17 17 17 17 17 17 17 17 17 17 16 16 16
18 18 18 18 18 18 18 18 18 18 18 18 18 18 18 18 18 18 18 18 18 18 18 18 18 18 18 18 17 17 17 17 17 17 17 17 17 17 17 17 16 16 16
18 18 18 18 18 18 18 18 18 18 18 18 18 18 19 18 18 18 18 18 18 18 18 18 18 18 18 18 18 17 17 17 17 17 17 17 17 17 17 17 16 16 16
18 18 18 18 18 18 18 18 18 18 18 18 19 19 19 19 18 18 18 18 18 18 18 18 18 18 18 18 18 17 17 17 17 17 17 17 17 17 17 17 17 16 16
18 18 18 18 18 18 18 18 18 18 18 18 19 19 19 19 18 18 18 18 18 18 18 18 18 18 18 18 18 18 17 18 17 17 17 17 17 17 17 17 17 16 16
18 18 18 18 18 18 18 18 18 18 18 18 18 19 19 19 19 19 19 19 18 18 18 18 18 18 18 18 18 18 18 18 17 17 17 17 17 17 17 17 17 16 16
18 18 18 18 18 18 18 18 18 18 18 18 18 19 20 20 19 19 19 18 18 18 18 18 18 18 18 18 18 18 18 18 17 17 17 17 17 17 17 17 17 16 16
18 18 18 18 18 18 18 18 18 18 18 18 18 19 20 20 20 20 19 19 18 18 18 18 18 18 18 18 18 18 18 18 18 17 17 17 17 17 17 17 17 17 16
18 18 18 18 18 18 18 18 18 18 18 18 18 18 18 18 19 20 20 19 18 18 18 18 18 18 18 18 18 18 18 18 18 17 17 17 17 17 17 17 16 16 16
18 18 18 18 18 18 18 18 18 18 18 18 18 18 18 18 18 19 20 19 19 19 18 18 18 18 18 18 17 17 18 18 17 17 17 17 17 17 17 17 16 16 16
19 18 18 18 18 18 18 18 18 18 18 18 18 18 18 18 18 19 19 19 19 19 18 18 18 18 18 18 17 18 18 18 17 17 17 17 17 17 16 16 16 16 16
19 19 18 18 18 18 18 18 18 18 18 18 18 18 18 18 18 18 18 19 19 19 18 18 18 18 18 17 17 18 18 18 17 17 17 17 17 17 16 16 16 16 16
18 18 18 18 18 18 18 18 18 18 18 18 18 18 18 18 18 18 18 18 19 19 19 18 18 18 17 17 17 18 17 17 17 17 17 17 17 17 16 16 16 16 16
18 18 18 18 18 18 18 18 18 18 18 18 17 17 17 18 17 17 17 17 18 19 19 19 18 18 17 17 17 17 17 17 17 17 17 17 17 16 16 16 16 16 16
18 18 18 18 18 18 18 18 18 17 17 17 17 17 17 17 17 17 17 17 17 18 18 19 18 18 17 17 17 17 16 17 17 17 17 17 16 16 16 16 16 16 15
18 18 18 18 18 18 17 18 17 17 17 17 17 17 17 17 17 17 17 17 17 17 17 18 18 17 17 17 17 16 16 16 16 16 16 16 16 16 16 16 16 15 15
18 18 18 18 17 17 17 17 17 17 17 17 17 17 17 17 17 17 17 17 17 17 17 17 17 17 17 16 16 16 16 16 16 16 16 16 16 15 15 15 15 15 15
18 17 17 17 17 17 17 17 17 17 17 17 17 17 17 17 17 17 17 17 17 17 16 16 17 17 16 16 16 16 16 16 16 16 16 16 15 15 15 15 15 15 15
17 17 17 17 17 17 17 17 17 17 17 17 16 16 16 16 16 16 16 16 16 16 16 16 16 16 16 16 16 16 16 16 15 15 15 15 15 15 15 15 15 14 14
17 17 17 17 17 16 16 16 16 16 16 16 16 16 16 16 16 16 16 16 16 16 16 16 16 16 16 16 15 15 15 15 15 15 15 15 14 14 14 14 14 14 14
17 17 16 16 16 16 16 16 16 16 16 16 16 16 16 16 16 16 16 16 16 16 15 15 16 16 15 15 15 15 15 15 15 15 14 14 14 14 14 14 14 14 13
16 16 16 16 16 16 16 16 16 16 15 15 15 16 15 16 15 15 16 16 16 16 15 15 15 15 15 15 15 15 15 14 14 14 14 14 14 14 13 13 13 13 13
16 16 16 16 16 15 16 16 16 16 15 15 15 15 15 15 15 15 15 15 15 15 15 15 15 15 15 15 15 14 14 14 14 14 14 13 13 13 13 13 13 13 13
15 15 15 15 15 15 15 15 15 15 15 15 15 15 15 15 15 15 15 15 15 15 15 15 15 15 15 14 14 14 14 14 14 14 13 13 13 13 13 13 12 12 12
15 15 15 15 14 15 15 15 15 14 14 14 14 14 14 14 14 15 14 14 14 14 14 14 14 14 14 14 14 14 13 14 14 14 13 13 13 13 13 12 12 12 12
Wind_Speed
1 1 1 1 1 1 0 0 1 1 1 2 2 2 3 3 3 4 4 10 10 10 10 9 9 9 9 9 8 8 8 9 9 10 10 10 10 11 10 10 10 10 9
1 0 1 0 1 1 1 1 1 1 1 1 2 2 3 3 3 3 3 7 11 11 11 10 10 10 10 10 9 9 9 9 10 10 10 11 11 11 11 11 11 11 11
1 1 1 1 1 1 1 2 2 2 2 2 2 2 3 3 2 3 4 4 7 12 12 11 11 11 11 10 10 10 10 10 10 10 11 11 11 11 11 11 11 11 11
3 3 2 1 1 2 2 1 2 2 1 2 2 2 2 2 3 3 5 5 5 5 11 13 12 11 11 11 10 10 10 9 10 10 10 11 11 11 12 11 11 11 10
3 4 2 1 3 2 2 2 1 2 2 2 3 2 2 2 3 3 3 4 5 5 5 10 13 12 12 11 11 10 10 10 10 10 10 10 11 11 11 11 11 11 11
4 4 3 3 3 2 2 2 2 2 2 3 4 2 3 3 3 3 4 4 5 6 5 5 8 11 13 12 11 11 11 11 11 11 10 10 10 10 10 11 11 11 11
4 4 4 2 3 2 2 3 2 2 2 2 3 3 3 3 3 3 3 3 3 4 5 5 6 6 9 14 14 12 11 11 11 11 11 11 10 10 10 10 10 11 10
5 5 4 4 3 2 3 2 2 3 2 2 3 3 2 2 3 3 3 3 3 3 4 6 6 6 7 6 10 14 13 11 11 10 11 11 11 11 10 10 10 10 11
5 5 5 4 3 4 3 3 2 3 3 2 2 3 3 2 2 2 3 3 3 3 4 4 6 6 7 6 6 11 12 12 11 11 10 10 11 11 11 10 10 10 10
5 5 5 5 5 4 3 4 2 3 4 3 2 2 3 4 4 2 3 2 3 3 4 4 4 5 6 6 5 5 8 10 11 11 10 9 9 9 10 10 9 9 9
5 5 5 5 5 5 4 4 3 4 4 4 3 3 3 3 5 5 4 3 3 3 3 4 3 3 4 5 5 5 8 9 9 9 9 9 9 8 8 9 9 9 8
4 5 5 5 6 5 4 5 5 5 4 5 4 4 3 3 4 4 5 5 4 3 3 3 3 3 4 4 4 4 6 8 9 9 9 9 8 8 9 9 9 8 8
4 5 5 5 5 5 5 5 5 5 6 6 6 5 4 5 5 5 6 6 5 4 3 3 3 3 3 3 2 4 6 8 9 9 9 8 8 8 8 8 8 8 7
5 4 5 6 6 6 6 5 5 5 5 6 7 6 5 5 5 5 5 6 6 5 4 3 2 2 2 3 2 5 5 9 9 9 9 8 8 8 8 7 8 8 8
5 5 5 6 6 6 6 6 5 6 5 6 6 6 6 5 6 6 5 5 6 6 5 3 3 2 2 3 2 4 4 6 8 9 9 9 9 8 8 8 7 7 7
5 5 6 6 6 6 6 6 6 6 6 6 5 6 6 7 5 6 6 6 6 7 7 4 3 3 2 4 3 4 5 6 9 9 9 9 9 9 8 7 7 7 7
5 6 6 6 6 6 6 5 6 6 6 7 7 7 8 8 7 6 6 6 6 6 7 6 4 2 3 5 3 4 5 6 6 10 9 9 9 9 8 8 8 7 7
5 5 5 6 6 6 6 6 6 6 6 7 7 8 8 7 7 7 7 7 7 6 7 8 5 4 5 5 4 5 5 5 4 8 9 9 9 9 9 8 7 7 6
4 4 5 5 6 6 6 6 6 6 7 7 7 8 8 8 8 7 7 7 7 7 6 7 7 4 4 4 5 6 5 3 5 6 9 9 9 9 9 9 8 8 7
4 4 4 4 5 5 5 6 6 6 7 7 7 7 8 8 8 8 7 8 7 8 7 7 7 5 5 4 4 5 5 4 4 4 3 5 7 9 10 10 10 9 9
4 3 4 4 4 4 5 5 6 7 6 7 7 7 7 6 6 6 7 7 7 7 7 7 6 5 5 4 5 5 5 4 4 4 3 4 5 5 7 10 11 9 8
3 3 4 4 5 4 2 3 5 6 6 7 7 7 7 7 7 7 8 8 7 8 7 7 7 7 6 6 5 5 5 5 4 3 4 4 4 4 4 5 8 9 9
3 4 4 5 5 4 3 4 5 7 8 7 7 8 8 6 6 7 7 9 9 9 9 9 9 8 7 6 6 7 6 6 5 3 4 5 5 5 4 4 8 10 10
3 4 5 5 5 5 4 5 5 8 8 8 8 8 8 7 6 5 7 7 7 8 8 9 8 9 8 6 6 7 6 6 5 4 4 5 4 5 5 4 10 10 10
4 5 5 5 6 5 4 5 6 7 7 8 7 7 7 7 3 4 7 8 8 7 6 6 7 6 5 4 5 5 5 5 5 5 4 5 4 4 4 5 7 10 10
5 5 5 5 5 5 2 3 6 6 7 7 6 6 5 6 5 4 7 8 8 7 6 4 5 6 6 6 7 7 6 6 6 5 4 5 4 4 4 4 4 6 7
Wind_Direction
118 109 82 6 323 15 199 275 342 32 292 249 254 234 245 255 250 245 171 173 193 204 209 212 211 214 213 212 217 220 225 228 227 225 225 225 226 226 227 230 233 230 232
139 153 166 146 324 325 342 307 327 288 286 293 270 265 262 253 222 239 229 179 191 200 208 214 216 218 217 213 218 222 227 231 231 230 230 232 230 229 229 231 234 234 235
179 241 223 213 248 278 275 271 301 288 271 258 269 273 257 260 243 233 241 221 197 196 204 213 218 221 221 219 221 224 229 233 233 231 230 232 233 232 233 233 235 235 237
216 247 250 240 246 256 260 260 272 286 289 286 265 271 263 232 243 235 234 226 228 211 197 205 216 222 223 225 227 228 230 234 238 238 236 235 236 233 232 233 232 232 236
220 243 261 275 256 267 287 287 327 294 287 292 265 248 261 247 246 235 237 233 226 235 222 188 204 218 221 225 228 229 229 231 235 235 236 239 241 235 233 232 231 231 232
223 246 239 248 267 268 282 293 299 283 284 284 289 289 265 251 245 241 242 227 222 226 229 216 205 206 210 218 224 225 229 230 232 231 231 236 239 233 231 231 230 229 231
229 239 262 237 262 264 288 291 284 265 271 296 286 273 249 229 236 225 237 246 226 231 229 220 226 226 206 207 216 223 228 231 233 230 226 228 231 233 233 230 230 231 232
239 229 236 252 245 248 250 276 277 287 282 274 293 294 266 207 218 223 219 223 238 230 230 225 221 226 244 222 199 209 222 228 229 228 228 229 229 232 232 230 231 232 232
245 253 246 256 257 257 250 257 264 269 283 273 275 289 295 307 303 209 225 220 236 248 240 233 228 224 231 239 226 203 211 221 225 229 232 230 230 229 229 230 232 234 234
244 245 244 246 255 259 251 253 245 261 265 273 250 259 285 307 289 279 232 216 219 234 248 252 237 223 230 236 223 216 205 219 228 231 231 233 232 231 230 229 230 233 233
235 245 243 242 244 253 254 265 263 261 257 268 272 265 262 258 261 278 285 283 244 235 237 242 252 249 233 237 233 213 201 217 228 228 227 228 231 230 230 228 228 230 231
228 235 242 241 243 247 242 245 248 243 254 262 267 264 265 272 276 273 277 275 274 257 247 248 248 241 237 239 232 153 193 210 216 218 221 223 227 229 230 227 227 230 234
239 233 241 238 245 242 243 249 245 251 243 243 249 255 257 264 273 277 281 283 279 268 245 244 241 243 247 241 218 169 198 201 208 211 216 219 222 225 227 225 222 225 227
254 248 244 242 242 242 243 242 249 243 239 242 249 251 255 258 265 267 273 286 283 269 240 240 246 241 263 256 202 209 213 195 205 209 213 216 218 217 216 219 222 220 224
247 239 242 241 242 241 244 245 248 248 245 245 244 236 247 254 253 259 260 266 277 281 273 221 237 244 259 263 204 238 237 189 199 205 210 213 214 212 213 215 217 215 215
251 250 245 242 242 242 242 245 250 246 245 247 249 253 254 259 257 253 257 258 260 272 280 281 253 263 283 280 223 255 252 189 200 204 207 210 212 212 212 213 213 208 206
245 244 246 248 247 247 246 245 251 252 250 252 254 248 248 260 260 259 253 254 254 256 264 269 260 248 244 268 267 265 253 241 218 195 202 206 210 211 211 208 200 199 202
248 246 246 247 248 248 247 248 254 258 255 256 257 260 259 256 252 258 259 254 254 256 259 266 265 252 232 240 246 254 257 248 248 179 190 197 201 203 202 201 197 197 197
249 255 253 249 249 253 254 253 254 258 259 262 264 264 265 263 259 257 257 259 257 253 252 260 260 257 252 240 238 244 247 255 253 182 180 189 194 196 198 198 196 197 201
246 249 252 250 253 257 262 262 260 259 260 263 266 268 269 266 265 265 258 257 259 262 255 257 263 258 248 237 239 248 243 230 243 224 197 190 189 196 200 197 194 198 205
243 244 251 255 259 258 260 265 265 261 260 263 264 266 267 272 285 277 276 271 264 260 259 256 258 255 250 240 246 249 250 241 228 228 223 212 197 202 196 196 195 195 200
245 243 245 250 256 262 271 277 270 273 269 264 265 267 264 252 253 248 261 271 274 263 261 261 258 258 255 250 250 252 252 246 246 217 230 238 228 228 217 212 177 184 195
244 251 255 255 256 257 247 246 253 266 267 266 267 270 273 271 254 262 249 240 246 245 250 259 265 266 263 250 247 244 242 248 258 236 233 242 238 243 235 193 166 183 193
244 248 253 259 266 264 234 241 249 252 263 265 264 265 268 274 275 277 271 264 257 248 240 243 257 265 267 260 241 244 245 239 241 234 231 253 244 251 242 202 173 182 192
253 253 257 261 267 271 237 234 249 262 263 267 267 267 270 269 274 282 270 269 267 262 238 234 251 265 282 264 249 246 237 238 247 236 224 244 249 253 246 225 187 183 194
262 266 270 268 270 275 238 230 250 264 270 270 264 260 250 263 278 261 265 269 268 269 271 247 236 235 236 226 215 228 236 242 253 252 228 232 235 241 249 235 218 203 207
Height
1571 1571 1571 1571 1571 1571 1571 1571 1571 1571 1571 1571 1571 1571 1571 1570 1570 1570 1570 1569 1569 1569 1569 1570 1570 1571 1571 1572 1572 1573 1573 1573 1573 1574 1574 1575 1575 1575 1576 1576 1576 1577 1577
1571 1571 1571 1570 1571 1571 1571 1571 1571 1570 1571 1570 1570 1570 1570 1570 1569 1569 1569 1568 1568 1568 1568 1569 1569 1570 1570 1570 1571 1571 1571 1572 1572 1572 1573 1573 1573 1574 1574 1574 1574 1575 1575
1570 1570 1571 1570 1570 1570 1570 1570 1570 1570 1570 1570 1569 1569 1569 1568 1568 1568 1568 1568 1567 1567 1567 1567 1568 1568 1568 1569 1569 1569 1570 1570 1570 1571 1571 1571 1572 1572 1572 1572 1573 1573 1573
1570 1570 1570 1570 1570 1570 1570 1569 1569 1569 1569 1569 1568 1568 1568 1567 1567 1566 1567 1567 1567 1567 1566 1566 1566 1566 1567 1567 1567 1568 1568 1568 1568 1569 1569 1569 1570 1570 1570 1570 1570 1570 1570
1569 1569 1569 1569 1569 1569 1569 1569 1568 1568 1568 1567 1567 1567 1567 1566 1565 1566 1565 1565 1565 1565 1565 1564 1564 1564 1565 1565 1565 1566 1566 1566 1566 1566 1567 1567 1567 1567 1568 1568 1568 1568 1568
1568 1569 1569 1568 1569 1568 1568 1567 1566 1566 1566 1566 1566 1566 1565 1565 1564 1564 1564 1564 1563 1563 1563 1563 1563 1563 1563 1563 1563 1563 1563 1563 1564 1564 1564 1564 1565 1565 1565 1565 1565 1565 1565
1567 1567 1568 1567 1567 1567 1567 1567 1566 1566 1566 1565 1565 1565 1564 1564 1563 1562 1562 1562 1562 1562 1561 1561 1561 1561 1561 1561 1561 1561 1561 1561 1561 1562 1562 1562 1562 1562 1562 1563 1563 1563 1562
1566 1567 1566 1566 1566 1566 1565 1565 1564 1565 1565 1564 1564 1564 1563 1563 1561 1561 1561 1560 1560 1560 1560 1560 1559 1559 1559 1560 1559 1559 1559 1559 1559 1559 1559 1559 1559 1559 1560 1560 1560 1560 1559
1564 1565 1565 1565 1565 1565 1565 1563 1563 1563 1563 1563 1563 1563 1562 1561 1561 1560 1559 1559 1558 1558 1558 1558 1557 1557 1557 1557 1557 1556 1556 1556 1556 1556 1556 1556 1557 1557 1557 1557 1557 1557 1556
1562 1563 1562 1562 1562 1563 1562 1562 1562 1561 1561 1562 1561 1560 1561 1560 1560 1558 1558 1557 1556 1556 1556 1556 1556 1555 1554 1554 1554 1553 1553 1553 1553 1554 1553 1553 1554 1554 1553 1554 1554 1553 1553
1560 1560 1560 1560 1560 1561 1560 1560 1559 1559 1560 1560 1560 1559 1559 1558 1558 1558 1556 1556 1555 1554 1554 1553 1553 1553 1552 1552 1551 1551 1550 1550 1550 1550 1550 1550 1550 1551 1551 1551 1550 1550 1550
1558 1558 1558 1558 1558 1558 1558 1557 1557 1557 1557 1557 1557 1557 1557 1557 1556 1555 1554 1554 1553 1553 1552 1551 1551 1550 1550 1550 1549 1548 1547 1547 1547 1547 1547 1547 1547 1547 1547 1547 1547 1547 1547
1557 1556 1556 1555 1555 1555 1555 1555 1554 1554 1554 1554 1554 1554 1554 1554 1554 1553 1553 1552 1551 1550 1550 1549 1548 1548 1548 1547 1546 1545 1544 1544 1544 1544 1544 1544 1544 1544 1544 1544 1544 1544 1544
1554 1553 1552 1552 1552 1552 1552 1552 1552 1551 1551 1551 1551 1551 1551 1551 1551 1550 1550 1550 1548 1548 1547 1547 1546 1546 1545 1544 1543 1542 1541 1541 1541 1541 1541 1541 1541 1541 1540 1541 1541 1541 1541
1550 1550 1549 1549 1549 1549 1549 1549 1549 1548 1548 1548 1548 1548 1548 1548 1548 1547 1547 1546 1547 1545 1544 1543 1543 1543 1542 1542 1540 1540 1539 1538 1538 1538 1538 1537 1537 1537 1537 1537 1537 1537 1537
1546 1546 1546 1546 1546 1546 1546 1546 1546 1546 1545 1545 1544 1544 1544 1544 1544 1543 1543 1543 1543 1543 1541 1541 1540 1540 1539 1539 1537 1537 1536 1535 1534 1534 1534 1534 1534 1534 1534 1534 1534 1534 1534
1543 1542 1542 1542 1543 1543 1543 1542 1543 1542 1542 1542 1541 1541 1540 1540 1540 1540 1540 1539 1539 1538 1538 1537 1537 1535 1534 1534 1534 1533 1533 1532 1532 1531 1530 1530 1530 1530 1530 1530 1530 1530 1530
1539 1539 1539 1539 1539 1539 1539 1539 1539 1539 1538 1538 1537 1537 1537 1537 1536 1535 1535 1535 1534 1534 1534 1533 1533 1532 1530 1530 1529 1529 1530 1530 1529 1528 1527 1527 1526 1526 1526 1526 1527 1527 1527
1536 1536 1536 1536 1536 1536 1535 1535 1535 1535 1535 1534 1534 1533 1533 1532 1531 1531 1530 1530 1530 1530 1530 1529 1529 1528 1527 1527 1526 1526 1526 1525 1525 1525 1524 1523 1523 1523 1523 1523 1523 1523 1523
1533 1533 1532 1532 1532 1532 1532 1532 1531 1531 1531 1530 1530 1529 1529 1528 1528 1527 1527 1526 1526 1526 1526 1525 1525 1524 1524 1523 1523 1523 1522 1522 1522 1522 1521 1520 1520 1519 1519 1519 1519 1519 1519
1530 1529 1529 1529 1528 1528 1528 1528 1528 1528 1527 1527 1526 1525 1524 1524 1523 1523 1523 1522 1522 1521 1521 1520 1520 1520 1520 1519 1519 1519 1519 1519 1518 1518 1518 1517 1517 1516 1516 1516 1516 1516 1516
1527 1526 1526 1525 1525 1525 1524 1524 1523 1523 1523 1523 1522 1521 1520 1519 1519 1518 1518 1518 1517 1517 1517 1516 1516 1516 1515 1516 1515 1515 1515 1515 1515 1515 1514 1514 1514 1514 1514 1513 1512 1512 1512
1523 1523 1522 1522 1521 1520 1520 1520 1519 1519 1519 1519 1517 1517 1517 1517 1515 1514 1513 1513 1512 1512 1512 1512 1512 1511 1511 1511 1511 1511 1511 1511 1511 1511 1510 1510 1511 1510 1510 1510 1509 1509 1509
1520 1520 1519 1519 1518 1517 1516 1516 1515 1515 1515 1514 1513 1512 1512 1512 1511 1510 1509 1509 1508 1507 1507 1507 1507 1507 1507 1507 1507 1507 1506 1506 1506 1507 1507 1507 1506 1507 1507 1506 1505 1505 1505
1517 1516 1516 1514 1514 1513 1513 1512 1511 1510 1510 1509 1508 1508 1507 1507 1506 1505 1505 1504 1503 1503 1502 1502 1502 1502 1502 1502 1502 1503 1503 1503 1503 1503 1503 1503 1503 1503 1503 1503 1502 1502 1502
1513 1513 1512 1511 1510 1509 1508 1508 1507 1507 1506 1505 1504 1503 1502 1502 1501 1501 1500 1500 1499 1498 1498 1497 1497 1497 1497 1497 1497 1498 1499 1499 1499 1499 1498 1499 1499 1499 1499 1500 1499 1498 1498